| time (UTC) | temp F | wind direction | speed MPH | gust MPH | rain 1hr in | rain 24hr in | rain mn in | humidity % | barometer mb |
| 20260507223332 | 56 | 208 | 7.0 | 15.0 | 0.00 | 0.18 | 0.00 | 26 | 1008.3 |
| 20260507223322 | 54 | 317 | 1.0 | 8.0 | 0.00 | 0.16 | 0.04 | 44 | 1006.7 |
| 20260507221911 | 56 | 276 | 4.0 | 11.0 | 0.00 | 0.18 | 0.00 | 32 | 1008.3 |
| 20260507221826 | 55 | 292 | 4.0 | 8.0 | 0.00 | 0.17 | 0.04 | 43 | 1006.6 |
| 20260507220345 | 56 | 238 | 6.0 | 14.0 | 0.00 | 0.18 | 0.00 | 26 | 1008.2 |
| 20260507220326 | 55 | 284 | 0.0 | 5.0 | 0.00 | 0.17 | 0.04 | 46 | 1006.7 |
| 20260507214935 | 56 | 324 | 5.0 | 11.0 | 0.00 | 0.20 | 0.00 | 27 | 1008.2 |
| 20260507214832 | 56 | 324 | 5.0 | 11.0 | 0.00 | 0.20 | 0.00 | 27 | 1008.2 |
| 20260507214829 | 55 | 313 | 2.0 | 5.0 | 0.00 | 0.17 | 0.04 | 43 | 1006.5 |
| 20260507213341 | 54 | 256 | 8.0 | 14.0 | 0.00 | 0.20 | 0.00 | 29 | 1008.3 |
| 20260507213325 | 56 | 283 | 2.0 | 11.0 | 0.00 | 0.17 | 0.04 | 43 | 1006.5 |
| 20260507211825 | 55 | 306 | 5.0 | 12.0 | 0.00 | 0.18 | 0.04 | 42 | 1006.4 |
| 20260507210327 | 54 | 317 | 6.0 | 12.0 | 0.00 | 0.20 | 0.00 | 31 | 1008.2 |
| 20260507210323 | 56 | 294 | 3.0 | 12.0 | 0.00 | 0.18 | 0.04 | 43 | 1006.3 |
| 20260507204916 | 56 | 304 | 5.0 | 12.0 | 0.00 | 0.18 | 0.04 | 41 | 1006.3 |
| 20260507204827 | 55 | 306 | 5.0 | 10.0 | 0.00 | 0.21 | 0.00 | 32 | 1008.2 |
| 20260507203425 | 57 | 358 | 5.0 | 15.0 | 0.00 | 0.21 | 0.00 | 28 | 1008.2 |
| 20260507203326 | 56 | 271 | 6.0 | 12.0 | 0.00 | 0.18 | 0.04 | 39 | 1006.3 |
| 20260507201912 | 57 | 276 | 4.0 | 6.0 | 0.00 | 0.24 | 0.04 | 41 | 1006.2 |
| 20260507200348 | 58 | 334 | 6.0 | 17.0 | 0.00 | 0.21 | 0.00 | 26 | 1008.1 |
| 20260507200313 | 56 | 311 | 4.0 | 9.0 | 0.00 | 0.24 | 0.04 | 41 | 1006.2 |
| 20260507194947 | 57 | 239 | 6.0 | 15.0 | 0.00 | 0.28 | 0.00 | 26 | 1008.1 |
| 20260507194922 | 56 | 299 | 4.0 | 10.0 | 0.00 | 0.24 | 0.04 | 42 | 1006.2 |
| 20260507194839 | 56 | 299 | 4.0 | 10.0 | 0.00 | 0.24 | 0.04 | 42 | 1006.2 |
| 20260507193439 | 57 | 264 | 6.0 | 14.0 | 0.00 | 0.28 | 0.00 | 28 | 1008.1 |
| 20260507193336 | 57 | 264 | 6.0 | 14.0 | 0.00 | 0.28 | 0.00 | 28 | 1008.1 |
| 20260507193314 | 56 | 306 | 3.0 | 9.0 | 0.00 | 0.24 | 0.04 | 44 | 1006.5 |
| 20260507191844 | 57 | 342 | 3.0 | 14.0 | 0.00 | 0.30 | 0.04 | 41 | 1006.5 |
| 20260507191837 | 56 | 253 | 7.0 | 15.0 | 0.00 | 0.28 | 0.00 | 25 | 1008.4 |
| 20260507190433 | 55 | 302 | 7.0 | 13.0 | 0.00 | 0.28 | 0.00 | 26 | 1008.5 |
| 20260507190351 | 55 | 302 | 7.0 | 13.0 | 0.00 | 0.28 | 0.00 | 26 | 1008.5 |
| 20260507190339 | 58 | 355 | 3.0 | 17.0 | 0.00 | 0.30 | 0.04 | 41 | 1006.6 |
| 20260507184851 | 55 | 297 | 11.0 | 16.0 | 0.00 | 0.35 | 0.00 | 28 | 1008.7 |
| 20260507184818 | 58 | 9 | 2.0 | 8.0 | 0.00 | 0.30 | 0.04 | 40 | 1006.6 |
| 20260507183422 | 55 | 201 | 5.0 | 12.0 | 0.00 | 0.35 | 0.00 | 26 | 1008.7 |
| 20260507183316 | 58 | 238 | 5.0 | 9.0 | 0.00 | 0.30 | 0.04 | 39 | 1006.7 |
| 20260507181857 | 56 | 282 | 7.0 | 13.0 | 0.00 | 0.35 | 0.00 | 27 | 1009.0 |
| 20260507181815 | 57 | 302 | 7.0 | 11.0 | 0.00 | 0.38 | 0.04 | 42 | 1007.1 |
| 20260507180346 | 56 | 268 | 7.0 | 15.0 | 0.00 | 0.35 | 0.00 | 28 | 1009.0 |
| 20260507180312 | 55 | 331 | 3.0 | 10.0 | 0.00 | 0.38 | 0.04 | 44 | 1007.3 |
| 20260507174852 | 56 | 212 | 5.0 | 13.0 | 0.00 | 0.43 | 0.00 | 29 | 1009.0 |
| 20260507174831 | 55 | 275 | 3.0 | 8.0 | 0.00 | 0.38 | 0.04 | 46 | 1007.1 |
| 20260507173415 | 53 | 306 | 4.0 | 9.0 | 0.00 | 0.38 | 0.04 | 46 | 1007.3 |
| 20260507173331 | 56 | 303 | 9.0 | 16.0 | 0.00 | 0.43 | 0.00 | 29 | 1009.0 |
| 20260507171845 | 56 | 230 | 8.0 | 20.0 | 0.00 | 0.43 | 0.00 | 30 | 1009.0 |
| 20260507171832 | 55 | 333 | 2.0 | 9.0 | 0.00 | 0.43 | 0.04 | 47 | 1007.3 |
| 20260507170419 | 54 | 261 | 2.0 | 6.0 | 0.00 | 0.43 | 0.04 | 49 | 1007.5 |
| 20260507170352 | 56 | 299 | 8.0 | 19.0 | 0.00 | 0.43 | 0.00 | 35 | 1009.0 |
| 20260507164837 | 55 | 215 | 8.0 | 16.0 | 0.00 | 0.46 | 0.00 | 30 | 1009.6 |
| 20260507164813 | 55 | 313 | 4.0 | 10.0 | 0.00 | 0.43 | 0.04 | 50 | 1007.7 |
| 20260507163340 | 55 | 330 | 3.0 | 12.0 | 0.00 | 0.46 | 0.00 | 40 | 1009.7 |
| 20260507163314 | 55 | 327 | 2.0 | 4.0 | 0.00 | 0.43 | 0.04 | 49 | 1008.1 |
| 20260507161906 | 54 | 167 | 5.0 | 14.0 | 0.00 | 0.46 | 0.00 | 33 | 1009.9 |
| 20260507161837 | 55 | 35 | 3.0 | 9.0 | 0.00 | 0.43 | 0.04 | 46 | 1008.1 |
| 20260507160358 | 54 | 9 | 4.0 | 11.0 | 0.00 | 0.43 | 0.04 | 47 | 1008.2 |
| 20260507160352 | 54 | 349 | 5.0 | 11.0 | 0.00 | 0.46 | 0.00 | 39 | 1009.9 |
| 20260507154850 | 53 | 284 | 8.0 | 15.0 | 0.00 | 0.46 | 0.00 | 35 | 1010.1 |
| 20260507154833 | 54 | 263 | 5.0 | 12.0 | 0.00 | 0.43 | 0.04 | 49 | 1008.4 |
| 20260507153357 | 52 | 293 | 10.0 | 17.0 | 0.00 | 0.46 | 0.00 | 34 | 1010.4 |
| 20260507153348 | 53 | 311 | 3.0 | 11.0 | 0.00 | 0.43 | 0.04 | 51 | 1008.8 |
| 20260507151844 | 53 | 346 | 4.0 | 9.0 | 0.00 | 0.43 | 0.04 | 52 | 1008.8 |
| 20260507151837 | 52 | 306 | 9.0 | 18.0 | 0.00 | 0.46 | 0.00 | 35 | 1010.4 |
| 20260507150341 | 52 | 334 | 9.0 | 18.0 | 0.00 | 0.46 | 0.00 | 36 | 1010.4 |
| 20260507150322 | 52 | 327 | 5.0 | 14.0 | 0.00 | 0.43 | 0.04 | 53 | 1008.7 |
| 20260507144841 | 52 | 299 | 10.0 | 22.0 | 0.00 | 0.46 | 0.00 | 36 | 1010.6 |
| 20260507143421 | 51 | 303 | 10.0 | 19.0 | 0.00 | 0.46 | 0.00 | 36 | 1010.6 |
| 20260507143405 | 52 | 305 | 5.0 | 11.0 | 0.00 | 0.43 | 0.04 | 53 | 1008.8 |
| 20260507141837 | 51 | 3 | 6.0 | 14.0 | 0.00 | 0.46 | 0.00 | 41 | 1010.5 |
| 20260507141820 | 52 | 298 | 2.0 | 6.0 | 0.00 | 0.43 | 0.04 | 54 | 1008.8 |
| 20260507140424 | 51 | 305 | 8.0 | 15.0 | 0.00 | 0.46 | 0.00 | 40 | 1010.6 |
| 20260507140335 | 51 | 317 | 3.0 | 10.0 | 0.00 | 0.43 | 0.04 | 56 | 1008.8 |
| 20260507134921 | 51 | 279 | 6.0 | 11.0 | 0.00 | 0.43 | 0.04 | 56 | 1008.7 |
| 20260507134849 | 50 | 314 | 8.0 | 17.0 | 0.00 | 0.46 | 0.00 | 39 | 1010.3 |
| 20260507133357 | 51 | 24 | 3.0 | 5.0 | 0.00 | 0.43 | 0.04 | 61 | 1008.5 |
| 20260507133350 | 50 | 276 | 5.0 | 15.0 | 0.00 | 0.46 | 0.00 | 43 | 1010.3 |
| 20260507131900 | 50 | 145 | 3.0 | 8.0 | 0.00 | 0.43 | 0.04 | 63 | 1008.5 |
| 20260507131854 | 50 | 163 | 3.0 | 11.0 | 0.00 | 0.46 | 0.00 | 52 | 1010.4 |
| 20260507130331 | 49 | 251 | 6.0 | 11.0 | 0.00 | 0.46 | 0.00 | 52 | 1010.4 |
| 20260507124844 | 49 | 6 | 7.0 | 11.0 | 0.00 | 0.46 | 0.00 | 56 | 1010.3 |
| 20260507124827 | 49 | 14 | 3.0 | 10.0 | 0.00 | 0.43 | 0.04 | 75 | 1008.6 |
| 20260507123413 | 48 | 345 | 1.0 | 8.0 | 0.00 | 0.43 | 0.04 | 79 | 1008.5 |
| 20260507123349 | 48 | 253 | 4.0 | 11.0 | 0.00 | 0.46 | 0.00 | 61 | 1010.1 |
| 20260507121827 | 48 | 257 | 3.0 | 7.0 | 0.00 | 0.46 | 0.00 | 69 | 1010.3 |
| 20260507121821 | 48 | 240 | 3.0 | 7.0 | 0.00 | 0.43 | 0.04 | 84 | 1008.3 |
| 20260507120415 | 47 | 278 | 1.0 | 3.0 | 0.00 | 0.46 | 0.00 | 70 | 1010.1 |
| 20260507120318 | 47 | 263 | 1.0 | 8.0 | 0.00 | 0.43 | 0.04 | 85 | 1008.1 |
| 20260507114904 | 47 | 319 | 2.0 | 8.0 | 0.00 | 0.43 | 0.04 | 89 | 1008.0 |
| 20260507114826 | 47 | 316 | 0.0 | 2.0 | 0.00 | 0.46 | 0.00 | 72 | 1009.8 |
| 20260507113335 | 47 | 332 | 3.0 | 9.0 | 0.00 | 0.46 | 0.00 | 73 | 1009.9 |
| 20260507113318 | 45 | 311 | 1.0 | 4.0 | 0.00 | 0.43 | 0.04 | 94 | 1008.0 |
| 20260507111919 | 47 | 255 | 4.0 | 10.0 | 0.00 | 0.46 | 0.00 | 74 | 1009.9 |
| 20260507111813 | 45 | 321 | 1.0 | 4.0 | 0.00 | 0.43 | 0.04 | 95 | 1008.0 |
| 20260507110341 | 44 | 313 | 1.0 | 2.0 | 0.00 | 0.43 | 0.04 | 97 | 1007.8 |
| 20260507110338 | 46 | 315 | 5.0 | 11.0 | 0.00 | 0.46 | 0.00 | 73 | 1009.7 |
| 20260507104844 | 44 | 15 | 1.0 | 3.0 | 0.00 | 0.43 | 0.04 | 97 | 1007.9 |
| 20260507104837 | 45 | 339 | 7.0 | 13.0 | 0.00 | 0.46 | 0.00 | 73 | 1009.3 |
| 20260507103343 | 43 | 294 | 0.0 | 0.0 | 0.00 | 0.43 | 0.04 | 97 | 1007.6 |
| 20260507103341 | 45 | 316 | 0.0 | 4.0 | 0.00 | 0.46 | 0.00 | 76 | 1009.1 |
| 20260507101848 | 45 | 298 | 1.0 | 5.0 | 0.00 | 0.46 | 0.00 | 74 | 1008.8 |
| 20260507101844 | 42 | 294 | 0.0 | 1.0 | 0.01 | 0.43 | 0.04 | 97 | 1007.3 |
| 20260507100413 | 45 | 334 | 0.0 | 3.0 | 0.00 | 0.46 | 0.00 | 74 | 1009.0 |
| 20260507100341 | 42 | 294 | 1.0 | 1.0 | 0.01 | 0.43 | 0.04 | 96 | 1007.6 |
| 20260507100331 | 45 | 334 | 0.0 | 3.0 | 0.00 | 0.46 | 0.00 | 74 | 1009.0 |
| 20260507094928 | 45 | 293 | 1.0 | 7.0 | 0.00 | 0.46 | 0.00 | 73 | 1009.1 |
| 20260507094820 | 43 | 294 | 0.0 | 1.0 | 0.01 | 0.43 | 0.04 | 96 | 1007.6 |
| 20260507093419 | 46 | 299 | 1.0 | 6.0 | 0.00 | 0.46 | 0.00 | 73 | 1009.4 |
| 20260507093316 | 43 | 319 | 1.0 | 2.0 | 0.00 | 0.42 | 0.03 | 95 | 1007.8 |
| 20260507091840 | 46 | 242 | 3.0 | 9.0 | 0.00 | 0.46 | 0.00 | 73 | 1009.1 |
| 20260507091835 | 44 | 319 | 0.0 | 1.0 | 0.00 | 0.42 | 0.03 | 96 | 1007.7 |
| 20260507090405 | 46 | 328 | 3.0 | 7.0 | 0.00 | 0.46 | 0.00 | 73 | 1009.5 |
| 20260507090342 | 45 | 321 | 0.0 | 1.0 | 0.00 | 0.42 | 0.03 | 96 | 1007.9 |
| 20260507084842 | 46 | 333 | 2.0 | 6.0 | 0.00 | 0.46 | 0.00 | 73 | 1009.7 |
| 20260507084816 | 45 | 331 | 0.0 | 1.0 | 0.00 | 0.42 | 0.03 | 96 | 1008.1 |
| 20260507083406 | 45 | 331 | 1.0 | 2.0 | 0.00 | 0.42 | 0.03 | 96 | 1008.2 |
| 20260507083351 | 46 | 25 | 3.0 | 9.0 | 0.00 | 0.46 | 0.00 | 73 | 1009.7 |
| 20260507081832 | 46 | 316 | 2.0 | 6.0 | 0.00 | 0.46 | 0.00 | 74 | 1009.1 |
| 20260507081826 | 45 | 5 | 0.0 | 1.0 | 0.00 | 0.42 | 0.03 | 96 | 1007.8 |
| 20260507080403 | 46 | 343 | 4.0 | 8.0 | 0.00 | 0.46 | 0.00 | 75 | 1009.1 |
| 20260507080348 | 45 | 5 | 0.0 | 0.0 | 0.01 | 0.42 | 0.03 | 95 | 1007.8 |
| 20260507074907 | 46 | 350 | 2.0 | 5.0 | 0.00 | 0.46 | 0.00 | 75 | 1009.0 |
| 20260507074825 | 46 | 5 | 0.0 | 1.0 | 0.01 | 0.42 | 0.03 | 96 | 1007.8 |
| 20260507073341 | 46 | 5 | 0.0 | 0.0 | 0.01 | 0.42 | 0.03 | 95 | 1007.6 |
| 20260507073336 | 46 | 308 | 1.0 | 8.0 | 0.00 | 0.46 | 0.00 | 75 | 1008.9 |
| 20260507071838 | 46 | 303 | 2.0 | 4.0 | 0.00 | 0.46 | 0.00 | 78 | 1009.1 |
| 20260507071836 | 46 | 5 | 0.0 | 2.0 | 0.01 | 0.42 | 0.03 | 95 | 1007.6 |
| 20260507070338 | 46 | 15 | 0.0 | 3.0 | 0.00 | 0.41 | 0.02 | 95 | 1007.5 |
| 20260507064840 | 46 | 118 | 1.0 | 3.0 | 0.00 | 0.46 | 0.00 | 78 | 1009.0 |
| 20260507064828 | 46 | 279 | 0.0 | 1.0 | 0.00 | 0.41 | 0.02 | 94 | 1007.6 |
| 20260507063412 | 46 | 324 | 1.0 | 2.0 | 0.00 | 0.46 | 0.00 | 78 | 1008.7 |
| 20260507063330 | 46 | 324 | 1.0 | 2.0 | 0.00 | 0.46 | 0.00 | 78 | 1008.7 |
| 20260507063325 | 46 | 294 | 1.0 | 3.0 | 0.00 | 0.41 | 0.02 | 94 | 1007.3 |
| 20260507061828 | 46 | 343 | 2.0 | 6.0 | 0.00 | 0.46 | 0.00 | 78 | 1008.7 |
| 20260507061820 | 46 | 328 | 1.0 | 3.0 | 0.01 | 0.41 | 0.02 | 94 | 1007.3 |
| 20260507060417 | 46 | 353 | 2.0 | 4.0 | 0.00 | 0.46 | 0.00 | 79 | 1008.9 |
| 20260507060342 | 46 | 296 | 1.0 | 2.0 | 0.01 | 0.41 | 0.02 | 94 | 1007.5 |
| 20260507060335 | 46 | 353 | 2.0 | 4.0 | 0.00 | 0.46 | 0.00 | 79 | 1008.9 |
| 20260507054851 | 46 | 307 | 1.0 | 4.0 | 0.00 | 0.46 | 0.00 | 80 | 1009.2 |
| 20260507054838 | 46 | 265 | 0.0 | 2.0 | 0.01 | 0.41 | 0.02 | 94 | 1007.7 |
| 20260507053337 | 46 | 357 | 2.0 | 7.0 | 0.00 | 0.46 | 0.00 | 79 | 1009.6 |
| 20260507053318 | 46 | 340 | 0.0 | 1.0 | 0.00 | 0.40 | 0.01 | 94 | 1007.8 |
| 20260507051836 | 46 | 346 | 2.0 | 6.0 | 0.00 | 0.46 | 0.00 | 83 | 1009.7 |
| 20260507051834 | 46 | 292 | 0.0 | 3.0 | 0.01 | 0.40 | 0.01 | 94 | 1008.0 |
| 20260507050346 | 47 | 315 | 1.0 | 4.0 | 0.01 | 0.40 | 0.01 | 94 | 1008.1 |
| 20260507050334 | 46 | 290 | 2.0 | 3.0 | 0.00 | 0.46 | 0.00 | 84 | 1009.8 |
| 20260507044840 | 46 | 297 | 1.0 | 5.0 | 0.00 | 0.46 | 0.00 | 84 | 1009.4 |
| 20260507044824 | 47 | 313 | 0.0 | 2.0 | 0.01 | 0.40 | 0.01 | 95 | 1007.7 |
| 20260507043432 | 46 | 292 | 2.0 | 7.0 | 0.00 | 0.46 | 0.00 | 84 | 1009.4 |
| 20260507043349 | 46 | 292 | 2.0 | 7.0 | 0.00 | 0.46 | 0.00 | 84 | 1009.4 |
| 20260507043319 | 47 | 221 | 0.0 | 3.0 | 0.01 | 0.40 | 0.01 | 95 | 1007.7 |
| 20260507041852 | 47 | 297 | 3.0 | 7.0 | 0.00 | 0.46 | 0.00 | 84 | 1009.1 |
| 20260507041850 | 47 | 308 | 1.0 | 4.0 | 0.01 | 0.39 | 0.39 | 94 | 1007.6 |
| 20260507040439 | 47 | 304 | 2.0 | 3.0 | 0.00 | 0.46 | 0.00 | 84 | 1009.4 |
| 20260507040356 | 47 | 304 | 2.0 | 3.0 | 0.00 | 0.46 | 0.00 | 84 | 1009.4 |
| 20260507040346 | 47 | 311 | 0.0 | 3.0 | 0.01 | 0.39 | 0.39 | 94 | 1007.7 |
| 20260507034934 | 47 | 315 | 1.0 | 4.0 | 0.02 | 0.39 | 0.39 | 94 | 1008.0 |
| 20260507034838 | 47 | 327 | 1.0 | 3.0 | 0.00 | 0.46 | 0.46 | 84 | 1009.6 |
| 20260507034830 | 47 | 315 | 1.0 | 4.0 | 0.02 | 0.39 | 0.39 | 94 | 1008.0 |
| 20260507033330 | 48 | 335 | 0.0 | 5.0 | 0.02 | 0.39 | 0.39 | 94 | 1007.9 |
| 20260507033327 | 47 | 326 | 1.0 | 4.0 | 0.01 | 0.46 | 0.46 | 84 | 1009.6 |
| 20260507031851 | 48 | 351 | 0.0 | 3.0 | 0.01 | 0.46 | 0.46 | 84 | 1009.5 |
| 20260507031829 | 48 | 322 | 1.0 | 4.0 | 0.01 | 0.38 | 0.38 | 94 | 1007.7 |
| 20260507030336 | 48 | 328 | 2.0 | 4.0 | 0.02 | 0.46 | 0.46 | 82 | 1009.5 |
| 20260507030329 | 49 | 324 | 2.0 | 4.0 | 0.02 | 0.38 | 0.38 | 94 | 1007.7 |
| 20260507024837 | 48 | 319 | 1.0 | 4.0 | 0.03 | 0.46 | 0.46 | 81 | 1009.4 |
| 20260507024824 | 49 | 321 | 1.0 | 3.0 | 0.01 | 0.37 | 0.37 | 94 | 1007.9 |
| 20260507023326 | 50 | 328 | 0.0 | 2.0 | 0.02 | 0.37 | 0.37 | 95 | 1007.7 |
| 20260507021827 | 49 | 7 | 2.0 | 7.0 | 0.02 | 0.45 | 0.45 | 78 | 1009.4 |
| 20260507021823 | 51 | 32 | 2.0 | 5.0 | 0.02 | 0.36 | 0.36 | 95 | 1007.8 |
| 20260507020400 | 49 | 301 | 4.0 | 10.0 | 0.01 | 0.44 | 0.44 | 77 | 1009.5 |
| 20260507020321 | 51 | 300 | 1.0 | 4.0 | 0.02 | 0.36 | 0.36 | 94 | 1007.8 |
| 20260507014838 | 50 | 287 | 6.0 | 13.0 | 0.00 | 0.43 | 0.43 | 76 | 1009.2 |
| 20260507014818 | 52 | 257 | 3.0 | 8.0 | 0.02 | 0.35 | 0.35 | 94 | 1007.2 |
| 20260507013357 | 52 | 314 | 3.0 | 8.0 | 0.03 | 0.35 | 0.35 | 93 | 1007.0 |
| 20260507013343 | 52 | 332 | 7.0 | 15.0 | 0.01 | 0.43 | 0.43 | 75 | 1009.0 |
| 20260507011922 | 54 | 5 | 6.0 | 10.0 | 0.02 | 0.43 | 0.43 | 77 | 1008.5 |
| 20260507011832 | 53 | 271 | 3.0 | 8.0 | 0.03 | 0.34 | 0.34 | 93 | 1006.9 |
| 20260507010348 | 55 | 337 | 4.0 | 9.0 | 0.04 | 0.43 | 0.43 | 80 | 1007.9 |
| 20260507010336 | 55 | 348 | 2.0 | 5.0 | 0.04 | 0.34 | 0.34 | 94 | 1006.2 |
| 20260507004857 | 56 | 311 | 0.0 | 2.0 | 0.04 | 0.33 | 0.33 | 96 | 1005.8 |
| 20260507004828 | 56 | 280 | 2.0 | 11.0 | 0.08 | 0.43 | 0.43 | 80 | 1007.6 |
| 20260507003353 | 56 | 315 | 3.0 | 7.0 | 0.10 | 0.42 | 0.42 | 88 | 1007.5 |
| 20260507003316 | 56 | 303 | 1.0 | 3.0 | 0.03 | 0.32 | 0.32 | 96 | 1005.7 |
| 20260507001858 | 56 | 316 | 1.0 | 9.0 | 0.11 | 0.41 | 0.41 | 88 | 1007.2 |
| 20260507001817 | 58 | 348 | 3.0 | 8.0 | 0.03 | 0.31 | 0.31 | 95 | 1005.3 |
| 20260507000350 | 58 | 253 | 1.0 | 3.0 | 0.09 | 0.39 | 0.39 | 88 | 1006.5 |
| 20260507000321 | 58 | 282 | 1.0 | 7.0 | 0.02 | 0.30 | 0.30 | 97 | 1004.8 |
| 20260506234904 | 58 | 281 | 2.0 | 6.0 | 0.01 | 0.29 | 0.29 | 97 | 1004.5 |
| 20260506234832 | 58 | 201 | 2.0 | 7.0 | 0.05 | 0.35 | 0.35 | 88 | 1006.3 |
| 20260506233341 | 58 | 283 | 1.0 | 7.0 | 0.03 | 0.32 | 0.32 | 88 | 1005.9 |
| 20260506233323 | 58 | 36 | 1.0 | 5.0 | 0.02 | 0.29 | 0.29 | 97 | 1004.3 |
| 20260506231900 | 58 | 141 | 3.0 | 10.0 | 0.01 | 0.30 | 0.30 | 88 | 1005.6 |
| 20260506231821 | 58 | 132 | 1.0 | 4.0 | 0.01 | 0.28 | 0.28 | 96 | 1004.2 |
| 20260506230410 | 58 | 141 | 4.0 | 10.0 | 0.02 | 0.30 | 0.30 | 88 | 1005.6 |
| 20260506230343 | 58 | 148 | 1.0 | 5.0 | 0.02 | 0.28 | 0.28 | 96 | 1004.2 |
| 20260506224827 | 58 | 127 | 4.0 | 12.0 | 0.03 | 0.30 | 0.30 | 88 | 1005.7 |
| 20260506224819 | 58 | 254 | 1.0 | 4.0 | 0.02 | 0.28 | 0.28 | 96 | 1004.3 |